Погода в Межозерном

Россия / Челябинская область     54°08′43″N   59°22′38″E
темп.,
°C
ветер,
м/с
пор.,
м/с
влажн.,
%
обл.,
%
осадки,
мм/ч
давл.,
гПа
погр.,
м
18 января, вт
вт1823:00−11юз71584100 0.0 1012613
02:00−10юз71582100 0.0 1013568
05:00−10юз71582100 0.0 1015531
08:00−9юз7157999 0.0 1015526
11:00−11юз6148838 0.0 1017395
14:00−10юз6148989 0.0 1017454
17:00−8юз61387100 0.0 1018353
20:00−8юз5128899 0.0 1018351
19 января, ср
ср1923:00−9юз51289100 0.0 1019296
02:00−9юз6148798 0.0 1019353
05:00−7зюз61385100 0.0 1019358
08:00−7юз6128398 0.0 1020328
11:00−7юз61285100 0.0 1021346
14:00−6юз51186100 0.0 1020329
17:00−7юз51087100 0.0 1022199
20:00−9юз4118958 0.0 1023155
20 января, чт
чт2023:00−10юз41189100 0.0 1023172
02:00
05:00−11зюз3690100 0.0 102494
08:00−10юз369199 0.0 102597
11:00
14:00−7зюз258949 0.0 1025172
17:00−11юз32945 0.0 102720
20:00−15з229737 0.0 102813
21 января, пт
пт2123:00−17зсз229836 0.0 102911
02:00−18з229920 0.0 103010
05:00−19зсз229925 0.0 103110
08:00−19зсз2210021 0.0 103110
11:00−15зсз11966 0.0 103122
14:00−9с119114 0.0 103042
17:00−14зюз119653 0.0 10319
20:00−17зсз119891 0.0 10339
22 января, сб
сб2223:00−18зсз119943 0.0 10339
02:00−19з2110068 0.0 10349
05:00−19з2199100 0.0 103510
08:00−17з2198100 0.0 103510
11:00−13зюз1193100 0.0 103530
14:00−8юз2284100 0.0 103497
17:00−11юз1191100 0.0 103510
20:00−14з119190 0.0 10369